Flag for U.S.A. Weather past 2 weeks in Wheaton, Illinois, U.S.A.

Now
50 °F

Clear.


Feels Like: 47 °F
Forecast: 41 / 63 °F
Wind: 7 mph from Northwest

Location: Dupage Airport

Current Time: Oct 26, 2014 at 12:33:01 AM

Latest Report: Oct 25, 2014 at 11:52 PM


Visibility: 10 mi

Pressure: 29.98 "Hg

Humidity: 44%

Dew point: 29 °F

Location of WheatonLocation

Historic Weather in Wheaton — Graph

°F

Wheaton temperature yesterday

Maximum temperature yesterday: 73 °F (at 2:52 PM)
Minimum temperature yesterday: 52 °F (at 2:52 AM)
Average temperature yesterday: 61 °F

Past Weeks' High & Low Weather Summary

 TemperatureHumidityPressure
High73 °F (Oct 25, 2:52 PM)97% (Oct 12, 10:52 PM)30.37 "Hg (Oct 12, 10:52 PM)
Low30 °F (Oct 19, 6:54 AM)21% (Oct 25, 3:52 PM)29.45 "Hg (Oct 14, 8:52 AM)
Average52 °F76%29.96 "Hg
* Reported Oct 10 10:52 PM — Oct 25 10:52 PM, Wheaton, Weather by CustomWeather, © 2014

Note: Actual official high and low records may vary slightly from our data, if they occured in-between our weather recording intervals... More about our weather records

Advertising

Wheaton weather history for previous 24 hours

 ConditionsComfort  
Time TempWeatherWind HumidityBarometerVisibility
10:52 PM
Oct 25
53 °FClear.9 mph39%29.98 "Hg10 mi
9:52 PM54 °FClear.9 mph41%29.98 "Hg10 mi
8:52 PM57 °FClear.12 mph36%29.97 "Hg10 mi
7:52 PM59 °FClear.12 mph33%29.96 "Hg10 mi
6:52 PM61 °FSunny.10 mph31%29.93 "Hg10 mi
5:52 PM65 °FSunny.12 mph24%29.92 "Hg10 mi
4:52 PM70 °FSunny.17 mph23%29.91 "Hg10 mi
3:52 PM72 °FSunny.22 mph21%29.92 "Hg10 mi
2:52 PM73 °FSunny.20 mph22%29.92 "Hg10 mi
1:52 PM72 °FSunny.13 mph26%29.93 "Hg10 mi
12:52 PM71 °FSunny.15 mph29%29.94 "Hg10 mi
11:52 AM69 °FSunny.14 mph42%29.96 "Hg10 mi
10:52 AM66 °FSunny.15 mph54%29.96 "Hg10 mi
9:52 AM62 °FSunny.12 mph73%29.95 "Hg7 mi
8:52 AM58 °FFog.6 mph87%29.94 "Hg3 mi
8:02 AM54 °FFog.5 mph93%29.92 "Hg1 mi
7:52 AM53 °FFog.3 mph96%29.92 "Hg2 mi
6:52 AM56 °FFog.6 mph90%29.92 "Hg5 mi
5:52 AM58 °FFog.10 mph87%29.91 "Hg6 mi
4:52 AM57 °FFog.9 mph93%29.91 "Hg4 mi
3:52 AM55 °FPassing clouds.6 mph90%29.90 "Hg7 mi
2:52 AM52 °FPassing clouds.6 mph86%29.89 "Hg10 mi
1:52 AM55 °FClear.8 mph80%29.89 "Hg10 mi
12:52 AM57 °FOvercast.7 mph78%29.91 "Hg10 mi
Weather by CustomWeather, © 2014

See weather overviewHow to use our weather pages